Date String (YYYY-MM-DD hh:mm:ss) UTC,Instrument flags,absolute air pressure of the measurement (hPa),sample flow rate (lpm),inlet stack bypass flow (lpm),air temperature of the measurement (°C),ambient temperature measured by the external sensor (°C),aerosol sample conditioner tube jacket temperature (°C),OPC LED temperature (°C),internal box temperature (°C),relative humidity of the measurement (%),span deviation,mass concentration of particles derived from Lorenz-Mie calculation of OPC scattering (μg/m³),mass concentration of particles derived from Lorenz-Mie calculation of OPC scattering (μg/m³),mass concentration of particles derived from Lorenz-Mie calculation of OPC scattering (μg/m³)
DateTimeUTC,F1_M11,P_M11,Q1_M11,Q2_M11,T1_M11,T2_M11,T3_M11,T4_M11,T5_M11,U1_M11,ZSPAN_M11,X2_M11,X0_M11,X1_M11
2023-08-24 12:00:00,SystemResetWarning,0833.7,5.01,000.00,028.3,024.6,000.0,036.5,029.6,32.4,0001.3,0008.33,0014.20,0007.54
2023-08-24 12:01:00,SystemResetWarning,0833.7,5.01,000.00,028.2,024.5,000.0,036.5,029.5,32.5,0001.1,0008.36,0014.33,0007.53
2023-08-24 12:02:00,SystemResetWarning,0833.7,5.01,000.00,028.1,024.7,000.0,036.5,029.4,32.6,0001.0,0008.38,0013.97,0007.52
2023-08-24 12:03:00,SystemResetWarning,0833.7,4.99,000.00,028.1,025.1,000.0,036.6,029.5,32.6,0000.8,0008.37,0014.69,0007.53
2023-08-24 12:04:00,SystemResetWarning,0833.7,5.00,000.00,028.1,025.5,000.0,036.6,029.6,32.5,0000.8,0008.35,0014.73,0007.53
2023-08-24 12:05:00,SystemResetWarning,0833.7,5.01,000.00,028.1,025.8,000.0,036.6,029.6,32.4,0000.8,0008.33,0014.47,0007.53
2023-08-24 12:06:00,SystemResetWarning,0833.8,5.00,000.00,028.1,026.1,000.0,036.6,029.7,32.3,0001.0,0008.35,0014.39,0007.54
2023-08-24 12:07:00,SystemResetWarning,0833.8,5.00,000.00,028.2,026.4,000.0,036.6,029.8,32.1,0001.2,0008.35,0014.59,0007.56
2023-08-24 12:08:00,SystemResetWarning,0833.8,5.00,000.00,028.2,026.6,000.0,036.6,029.8,32.1,0001.1,0008.35,0014.07,0007.57
2023-08-24 12:09:00,SystemResetWarning,0833.8,5.00,000.00,028.2,026.7,000.0,036.7,029.9,32.1,0001.1,0008.37,0014.06,0007.59
2023-08-24 12:10:00,SystemResetWarning,0833.8,5.00,000.00,028.3,026.9,000.0,036.7,029.9,32.0,0000.9,0008.44,0014.18,0007.62
2023-08-24 12:11:00,SystemResetWarning,0833.8,5.00,000.00,028.3,027.0,000.0,036.7,030.0,31.9,0001.1,0008.54,0014.56,0007.64
2023-08-24 12:12:00,SystemResetWarning,0833.9,5.01,000.00,028.3,027.1,000.0,036.7,030.0,31.8,0000.9,0008.54,0014.61,0007.65
2023-08-24 12:13:00,SystemResetWarning,0833.9,4.99,000.00,028.4,027.1,000.0,036.7,030.0,31.6,0000.7,0008.58,0014.44,0007.66
2023-08-24 12:14:00,SystemResetWarning,0833.8,4.99,000.00,028.4,025.8,000.0,036.6,029.8,31.7,0001.1,0008.57,0013.59,0007.65
2023-08-24 12:15:00,SystemResetWarning,0833.8,5.00,000.00,028.2,024.6,000.0,036.5,029.6,31.8,0000.8,0008.61,0013.64,0007.65
2023-08-24 12:16:00,SystemResetWarning,0833.8,5.01,000.00,028.1,024.5,000.0,036.5,029.4,32.0,0000.7,0008.62,0014.01,0007.66
2023-08-24 12:17:00,SystemResetWarning,0833.8,5.01,000.00,028.1,024.8,000.0,036.5,029.4,32.2,0000.7,0008.63,0014.43,0007.65
2023-08-24 12:18:00,SystemResetWarning,0833.8,5.00,000.00,028.1,025.1,000.0,036.6,029.5,32.3,0000.6,0008.67,0014.65,0007.64
2023-08-24 12:19:00,SystemResetWarning,0833.8,5.01,000.00,028.1,025.5,000.0,036.6,029.6,32.4,0000.8,0008.71,0014.49,0007.63
2023-08-24 12:20:00,SystemResetWarning,0833.8,5.00,000.00,028.1,025.8,000.0,036.6,029.6,32.4,0000.8,0008.74,0014.61,0007.63
2023-08-24 12:21:00,SystemResetWarning,0833.8,5.01,000.00,028.1,026.1,000.0,036.6,029.7,32.3,0000.8,0008.74,0014.96,0007.60
2023-08-24 12:22:00,SystemResetWarning,0833.7,5.00,000.00,028.1,026.4,000.0,036.6,029.8,32.2,0000.8,0008.71,0015.11,0007.58
2023-08-24 12:23:00,SystemResetWarning,0833.8,5.00,000.00,028.2,026.6,000.0,036.6,029.8,32.1,0000.6,0008.69,0014.98,0007.57
2023-08-24 12:24:00,SystemResetWarning,0833.8,5.00,000.00,028.2,026.8,000.0,036.6,029.9,32.0,0001.0,0008.68,0015.02,0007.57
2023-08-24 12:25:00,SystemResetWarning,0833.8,4.99,000.00,028.2,026.9,000.0,036.7,029.9,31.9,0001.0,0008.70,0015.60,0007.58
2023-08-24 12:26:00,SystemResetWarning,0833.8,5.00,000.00,028.3,027.0,000.0,036.7,030.0,32.0,0000.9,0008.70,0015.62,0007.57
2023-08-24 12:27:00,SystemResetWarning,0833.9,4.99,000.00,028.3,027.1,000.0,036.7,030.0,32.0,0000.7,0008.68,0015.36,0007.56
2023-08-24 12:28:00,SystemResetWarning,0833.9,5.00,000.00,028.4,027.1,000.0,036.7,030.1,31.8,0000.4,0008.68,0014.99,0007.56
2023-08-24 12:29:00,SystemResetWarning,0833.9,5.00,000.00,028.3,025.7,000.0,036.6,029.8,31.9,0000.5,0008.68,0014.60,0007.55
2023-08-24 12:30:00,SystemResetWarning,0833.9,5.01,000.00,028.2,024.6,000.0,036.5,029.6,32.1,0000.4,0008.69,0014.81,0007.54
2023-08-24 12:31:00,SystemResetWarning,0833.9,5.00,000.00,028.2,024.5,000.0,036.5,029.5,32.3,0000.6,0008.66,0014.62,0007.56
2023-08-24 12:32:00,SystemResetWarning,0833.9,5.01,000.00,028.1,024.8,000.0,036.5,029.4,32.5,0000.7,0008.66,0014.42,0007.57
2023-08-24 12:33:00,SystemResetWarning,0834.0,5.00,000.00,028.1,025.2,000.0,036.5,029.5,32.5,0000.9,0008.66,0014.76,0007.58
2023-08-24 12:34:00,SystemResetWarning,0834.0,5.00,000.00,028.1,025.5,000.0,036.6,029.6,32.5,0001.0,0008.64,0015.35,0007.60
2023-08-24 12:35:00,SystemResetWarning,0834.0,5.00,000.00,028.1,025.9,000.0,036.6,029.7,32.5,0000.9,0008.65,0016.13,0007.60
2023-08-24 12:36:00,SystemResetWarning,0834.0,5.00,000.00,028.1,026.2,000.0,036.6,029.7,32.5,0000.5,0008.66,0015.75,0007.60
2023-08-24 12:37:00,SystemResetWarning,0834.0,5.00,000.00,028.2,026.4,000.0,036.6,029.8,32.5,0000.7,0008.66,0015.69,0007.59
2023-08-24 12:38:00,SystemResetWarning,0834.0,5.00,000.00,028.2,026.6,000.0,036.6,029.8,32.5,0001.1,0008.66,0015.65,0007.59
2023-08-24 12:39:00,SystemResetWarning,0834.1,5.00,000.00,028.2,026.8,000.0,036.6,029.9,32.5,0001.6,0008.69,0015.69,0007.61
2023-08-24 12:40:00,SystemResetWarning,0834.1,4.98,000.00,028.2,026.9,000.0,036.7,029.9,32.5,0001.5,0008.69,0015.83,0007.63
2023-08-24 12:41:00,SystemResetWarning,0834.1,5.00,000.00,028.3,027.0,000.0,036.7,030.0,32.5,0001.6,0008.68,0015.77,0007.64
2023-08-24 12:42:00,SystemResetWarning,0834.1,5.01,000.00,028.3,027.2,000.0,036.7,030.0,32.5,0001.2,0008.70,0016.12,0007.63
2023-08-24 12:43:00,SystemResetWarning,0834.1,4.99,000.00,028.3,026.4,000.0,036.6,029.9,32.4,0001.3,0008.64,0016.11,0007.62
2023-08-24 12:44:00,SystemResetWarning,0834.1,4.99,000.00,028.3,024.9,000.0,036.5,029.6,32.6,0001.1,0008.66,0015.81,0007.62
2023-08-24 12:45:00,SystemResetWarning,0834.1,5.01,000.00,028.2,024.6,000.0,036.4,029.5,32.8,0001.1,0008.70,0015.72,0007.61
2023-08-24 12:46:00,SystemResetWarning,0834.1,5.00,000.00,028.1,024.8,000.0,036.5,029.5,32.9,0001.1,0008.66,0014.86,0007.58
2023-08-24 12:47:00,SystemResetWarning,0834.1,5.00,000.00,028.1,025.1,000.0,036.5,029.5,33.0,0001.2,0008.62,0014.43,0007.54
2023-08-24 12:48:00,SystemResetWarning,0834.1,5.00,000.00,028.1,025.5,000.0,036.6,029.6,33.0,0001.2,0008.55,0014.29,0007.52
2023-08-24 12:49:00,SystemResetWarning,0834.1,5.00,000.00,028.1,025.8,000.0,036.6,029.7,33.0,0001.4,0008.54,0014.43,0007.51
2023-08-24 12:50:00,SystemResetWarning,0834.1,5.00,000.00,028.1,026.1,000.0,036.6,029.7,33.0,0001.4,0008.54,0014.68,0007.49
2023-08-24 12:51:00,SystemResetWarning,0834.1,5.00,000.00,028.1,026.4,000.0,036.6,029.8,32.9,0001.4,0008.51,0014.50,0007.45
2023-08-24 12:52:00,SystemResetWarning,0834.1,5.01,000.00,028.2,026.6,000.0,036.6,029.8,32.9,0001.4,0008.42,0013.90,0007.41
2023-08-24 12:53:00,SystemResetWarning,0834.1,5.01,000.00,028.2,026.7,000.0,036.6,029.9,32.8,0001.5,0008.37,0013.86,0007.39
2023-08-24 12:54:00,SystemResetWarning,0834.1,5.00,000.00,028.2,026.9,000.0,036.6,029.9,32.8,0001.7,0008.37,0013.77,0007.36
2023-08-24 12:55:00,SystemResetWarning,0834.1,5.00,000.00,028.3,027.0,000.0,036.7,030.0,32.7,0001.9,0008.30,0014.00,0007.33
2023-08-24 12:56:00,SystemResetWarning,0834.1,5.00,000.00,028.3,027.1,000.0,036.7,030.0,32.8,0001.9,0008.20,0013.93,0007.30
2023-08-24 12:57:00,SystemResetWarning,0834.1,4.99,000.00,028.4,027.2,000.0,036.7,030.1,32.7,0002.1,0008.16,0014.21,0007.26
2023-08-24 12:58:00,SystemResetWarning,0834.1,4.99,000.00,028.4,026.3,000.0,036.6,029.9,32.7,0002.2,0008.16,0014.40,0007.26
2023-08-24 12:59:00,SystemResetWarning,0834.1,5.02,000.00,028.3,024.9,000.0,036.5,029.7,32.8,0002.2,0008.16,0014.62,0007.23
